This is the latest recevied weather packets stored in our database for station/object K42C. If no packets are shown the sender has not sent any weather packets the latest 1 day(s).
| Time | Temp. | Humidity | Pressure | Rain* | Wind** | Luminosity | Snow |
|---|---|---|---|---|---|---|---|
| 1777999055 | 12.22° C | 43% | 970.1 hPa | 0 mm | 2.68 m/s, 270° | - | - |
| 1777998657 | 11.67° C | 45% | 970.1 hPa | 0 mm | 2.68 m/s, 328° | - | - |
| 1777998257 | 11.67° C | 43% | 970.2 hPa | 0 mm | 2.24 m/s, 318° | - | - |
| 1777997859 | 11.67° C | 45% | 970.2 hPa | 0 mm | 1.79 m/s, 259° | - | - |
| 1777997458 | 11.67° C | 44% | 970.2 hPa | 0 mm | 3.58 m/s, 307° | - | - |
| 1777997061 | 11.67° C | 43% | 970.3 hPa | 0 mm | 4.47 m/s, 245° | - | - |
| 1777996660 | 11.67° C | 43% | 970.1 hPa | 0 mm | 4.02 m/s, 294° | - | - |
| 1777995862 | 11.11° C | 46% | 970.3 hPa | 0 mm | 2.68 m/s, 252° | - | - |
| 1777995465 | 11.11° C | 47% | 970.3 hPa | 0 mm | 0.89 m/s, 319° | - | - |
| 1777995064 | 10.56° C | 47% | 970.3 hPa | 0 mm | 3.13 m/s, 243° | - | - |
| 1777994667 | 10.56° C | 47% | 970.6 hPa | 0 mm | 3.13 m/s, 316° | - | - |
| 1777994266 | 10.56° C | 46% | 970.5 hPa | 0 mm | 2.68 m/s, 177° | - | - |
| 1777993869 | 10.56° C | 47% | 970.5 hPa | 0 mm | 3.13 m/s, 305° | - | - |
| 1777993468 | 10.56° C | 47% | 970.8 hPa | 0 mm | 3.13 m/s, 301° | - | - |
| 1777993070 | 10.56° C | 48% | 970.7 hPa | 0 mm | 1.34 m/s, 285° | - | - |
| 1777992670 | 10.56° C | 48% | 970.6 hPa | 0 mm | 4.47 m/s, 252° | - | - |
| 1777992272 | 10.56° C | 53% | 970.4 hPa | 0 mm | 0.89 m/s, 300° | - | - |
| 1777991872 | 10.56° C | 52% | 970.9 hPa | 0 mm | 1.79 m/s, 307° | - | - |
| 1777991474 | 10.56° C | 52% | 970.7 hPa | 0 mm | 2.24 m/s, 240° | - | - |
| 1777991073 | 10° C | 53% | 970.7 hPa | 0 mm | 2.24 m/s, 323° | - | - |
| 1777990676 | 10° C | 55% | 970.7 hPa | 0 mm | 1.34 m/s, 308° | - | - |
| 1777990275 | 9.44° C | 56% | 970.7 hPa | 0 mm | 0.45 m/s, 318° | - | - |
| 1777989878 | 9.44° C | 59% | 970.7 hPa | 0 mm | 0.89 m/s, 248° | - | - |
| 1777989477 | 9.44° C | 58% | 970.5 hPa | 0 mm | 2.24 m/s, 295° | - | - |
| 1777989081 | 9.44° C | 57% | 970.5 hPa | 0 mm | 3.13 m/s, 270° | - | - |
* Rain latest hour (hover to see other rain measurements)
** Current wind speed in m/s (hover to see current wind gust speed)